Regional Weather Roundup
Issued by NWS State College, PA

Home | Current Version | Previous Version | Text Only | Print | Product List | Glossary On
Versions: 1 2 3 4 5 6 7 8 9 10 11 12 13 14 15 16 17 18 19 20 21 22 23 24 25 26 27 28 29 30 31 32 33 34 35 36 37 38 39 40 41 42 43 44 45 46 47 48 49 50
000
ASUS41 KCTP 211610
RWRCTP

REGIONAL WEATHER ROUNDUP
NATIONAL WEATHER SERVICE STATE COLLEGE PA
1200 PM EDT THU AUG 21 2014

Note: "fair" indicates few or no clouds below 12,000 feet with no
significant weather and/or obstructions to visibility.

* = STATION THAT DOES NOT REPORT PRECIPITATION /E.G. RAIN...SNOW...ETC/
    THUNDER OR FOG.

PAZ002>004-007>009-013>016-020>023-029>032-211700-
WESTERN PENNSYLVANIA

CITY           SKY/WX    TMP DP  RH WIND       PRES   REMARKS
ERIE           MOSUNNY   79  65  62 VRB6      30.01S
MEADVILLE      PTSUNNY   77  66  68 SW6       30.05F
FRANKLIN*      MOSUNNY   77  66  69 S5        30.07F
NEW CASTLE     NOT AVBL
BEAVER COUNTY  CLOUDY    75  70  83 S9        30.06F
BUTLER*        MOSUNNY   79  68  69 SW8       30.08F
PITTSBURGH INT PTSUNNY   74  67  78 SW8       30.07S
PITTSBURGH     CLOUDY    73  66  78 S9        30.08S
INDIANA*       PTSUNNY   77  70  78 SW9G16    30.11S
LATROBE        CLOUDY    75  72  88 SW13      30.09F
WASHINGTON CO* CLOUDY    75  68  78 SW7       30.09F
$$

PAZ004>006-010>012-017>019-024>028-033>037-041-042-045-046-049>053-211700-
CENTRAL PENNSYLVANIA

CITY           SKY/WX    TMP DP  RH WIND       PRES   REMARKS
BRADFORD       MOSUNNY   74  64  71 VRB7      30.07S
DUBOIS         HVY RAIN  70  68  93 NE8       30.06S VSB 1/4
CLEARFIELD     MOSUNNY   75  69  81 VRB5      30.07F
JOHNSTOWN      MOSUNNY   75  65  70 SW10      30.11F
ALTOONA        MOSUNNY   77  69  76 S8        30.08F
STATE COLLEGE  MOSUNNY   77  70  78 SW6       30.06F
WILLIAMSPORT   CLOUDY    77  68  73 SE3       30.02S
SELINSGROVE    PTSUNNY   78  69  73 VRB5      30.04S HAZE
FT INDIANTOWN  PTSUNNY   77  73  88 VRB3      30.05S
CAPITAL CITY   MOSUNNY   79  68  69 NW3       30.04F
HARRISBURG     MOSUNNY   81  70  69 CALM      30.03F
YORK           SUNNY     81  71  71 N3        30.04F
$$

PAZ038>040-043-044-047-048-054-055-060>062-067>071-211700-
EASTERN PENNSYLVANIA

CITY           SKY/WX    TMP DP  RH WIND       PRES   REMARKS
SCRANTON       MOSUNNY   80  66  62 W6        30.03F
MOUNT POCONO   CLOUDY    69  64  84 S5        30.09F
ALLENTOWN      CLOUDY    77  66  68 VRB5      30.05F
QUAKERTOWN*    CLOUDY    75  68  78 MISG      30.06F
READING        CLOUDY    77  67  71 VRB3      30.04F
LANCASTER      CLOUDY    78  69  73 CALM      30.05F
COATESVILLE    CLOUDY    73  72  94 W5        30.07F
POTTSTOWN      CLOUDY    76  67  73 VRB5      30.07S
BLUE BELL      CLOUDY    82  68  61 SW3       30.04F
DOYLESTOWN     PTSUNNY   79  61  53 SW3       30.04F
WILLOW GROVE   NOT AVBL
NORTH PHILA    SUNNY     82  60  47 SE6       30.05F
PHILADELPHIA   PTSUNNY   80  66  62 SW3       30.05F
$$


USA.gov is the U.S. government's official web portal to all federal, state and local government web resources and services.